Frederick, OK

9:47 PM CST on December 12, 2017 (GMT -0600)
Frederick Municipal

Weather History for KFDR - December, 2012

Change the Weather History Date:

Friday, December 7, 2012

  Actual Average (KLTS) Record (KLTS)
Temperature  
Mean Temperature 47 °F -  
Max Temperature 55 °F 53 °F 69 °F (2008)
Min Temperature 39 °F 30 °F 4 °F (2013)
Degree Days  
Heating Degree Days 18    
Moisture  
Dew Point 37 °F    
Average Humidity 68    
Maximum Humidity 86    
Minimum Humidity 55    
Precipitation  
Precipitation 0.00 in - - ()
Sea Level Pressure  
Sea Level Pressure 29.83 in    
Wind  
Wind Speed 9 mph (NNW)    
Max Wind Speed 13 mph    
Max Gust Speed -    
Visibility 10 miles    
Events      
Averages and records for this station are not official NWS values.
T = Trace of Precipitation, MM = Missing Value Source: NWS Daily Summary

Daily Weather History Graph

Daily Weather History Graph

Search for Another Location

Airport or City:

Trip Planner

Search our weather history database for the weather conditions in past years. The results will help you decide how hot, cold, wet, or windy it might be!

Date:

Astronomy

Dec. 07, 2012 Rise Set
Actual Time 7:29 AM CST 5:25 PM CST
Civil Twilight 7:01 AM CST 5:53 PM CST
Nautical Twilight 6:30 AM CST 6:24 PM CST
Astronomical Twilight 5:59 AM CST 6:55 PM CST
Moon 1:04 AM CST (12/7) 1:10 PM CST (12/7)
Length of Visible Light 10h 51m
Length of Day
9h 56m
Last Quarter, 38% of the Moon is Illuminated
Dec 7
Last Quarter
Dec 13
New
Dec 19
First Quarter
Dec 28
Full
Jan 4
Last Quarter

Hourly Weather History & Observations

Time (CST) Temp. Windchill Dew Point Humidity Pressure Visibility Wind Dir Wind Speed Gust Speed Precip Events Conditions
12:53 AM 46.0 °F 41.4 °F 37.9 °F 73% 29.80 in 10.0 mi North 9.2 mph - N/A   Clear
1:53 AM 46.0 °F 40.2 °F 37.9 °F 73% 29.80 in 10.0 mi NNW 12.7 mph - N/A   Clear
2:53 AM 45.0 °F 39.3 °F 37.0 °F 74% 29.81 in 10.0 mi NNW 11.5 mph - N/A   Clear
3:53 AM 44.1 °F 37.7 °F 36.0 °F 73% 29.81 in 10.0 mi NNW 12.7 mph - N/A   Clear
4:53 AM 42.1 °F 35.7 °F 35.1 °F 76% 29.81 in 10.0 mi NNW 11.5 mph - N/A   Clear
6:53 AM 39.9 °F 34.5 °F 34.0 °F 79% 29.83 in 10.0 mi North 8.1 mph - N/A   Clear
7:53 AM 39.0 °F 33.4 °F 33.1 °F 79% 29.85 in 10.0 mi WNW 8.1 mph - N/A   Clear
8:53 AM 46.9 °F - 36.0 °F 66% 29.85 in 10.0 mi North 11.5 mph - N/A   Clear
9:53 AM 50.0 °F - 36.0 °F 59% 29.86 in 10.0 mi NNW 6.9 mph - N/A   Clear
10:53 AM 50.0 °F - 37.0 °F 61% 29.87 in 10.0 mi NW 12.7 mph - N/A   Clear
11:53 AM 50.0 °F - 37.9 °F 63% 29.85 in 10.0 mi NNW 6.9 mph - N/A   Clear
12:53 PM 52.0 °F - 37.9 °F 59% 29.83 in 10.0 mi NW 9.2 mph - N/A   Clear
1:53 PM 53.1 °F - 37.9 °F 57% 29.79 in 10.0 mi WNW 6.9 mph - N/A   Clear
2:53 PM 55.0 °F - 39.0 °F 55% 29.78 in 10.0 mi NNW 4.6 mph - N/A   Clear
3:53 PM 55.0 °F - 39.0 °F 55% 29.78 in 10.0 mi WNW 3.5 mph - N/A   Clear
4:53 PM 55.0 °F - 39.0 °F 55% 29.79 in 10.0 mi Calm Calm - N/A   Clear
5:53 PM 51.1 °F - 37.9 °F 61% 29.81 in 10.0 mi Calm Calm - N/A   Clear
6:53 PM 46.9 °F - 36.0 °F 66% 29.83 in 10.0 mi South 4.6 mph - N/A   Clear
7:53 PM 46.9 °F - 37.0 °F 68% 29.86 in 10.0 mi West 3.5 mph - N/A   Clear
8:53 PM 42.1 °F 38.4 °F 34.0 °F 73% 29.87 in 10.0 mi NNE 5.8 mph - N/A   Clear
9:53 PM 41.0 °F 35.8 °F 34.0 °F 76% 29.88 in 10.0 mi NNE 8.1 mph - N/A   Clear
10:53 PM 39.9 °F 33.4 °F 34.0 °F 79% 29.89 in 10.0 mi NE 10.4 mph - N/A   Clear
11:53 PM 39.9 °F 32.9 °F 36.0 °F 86% 29.89 in 10.0 mi NE 11.5 mph - N/A   Clear